Wind_Speed
19 20 20 20 21 22 21 22 22 22 23 24 24 24 24 24 24 24 22 21 21 21 21 21 20 20 19 19 19 18 18 18 17 16 16 15 15 15 15 15 15 14 14 13 13 12 12 12 12
19 20 20 20 21 21 21 23 23 23 23 24 25 25 25 25 25 25 23 22 22 22 22 21 21 21 21 21 20 20 19 19 19 18 17 16 16 15 15 15 15 15 14 14 14 13 13 13 13
20 20 20 21 21 22 22 23 23 24 24 25 25 26 26 26 26 26 25 24 23 23 22 22 22 21 21 21 21 21 20 20 19 19 18 17 17 17 16 16 16 16 15 15 14 14 14 13 13
20 20 21 21 21 20 22 24 24 25 26 26 26 27 26 26 26 26 27 25 24 23 23 23 23 22 22 22 21 21 21 20 20 20 19 18 18 18 17 17 17 17 16 16 15 15 15 14 14
20 21 21 21 20 20 21 23 23 25 26 26 26 27 27 27 27 27 27 26 26 25 24 24 23 23 23 23 22 21 21 20 20 20 20 19 19 19 18 18 18 17 17 17 16 16 15 15 15
22 23 23 22 21 21 22 22 22 24 25 26 27 27 27 26 27 27 27 26 26 25 25 24 24 24 24 23 23 22 21 21 21 21 21 20 20 20 20 19 19 18 17 17 17 17 16 16 15
24 25 25 23 22 22 24 23 24 24 25 26 27 28 28 27 27 27 27 27 26 25 25 25 25 24 24 24 24 23 23 23 22 22 22 21 21 21 21 21 20 19 18 18 18 17 17 17 16
25 26 26 25 23 24 25 25 25 26 26 26 27 28 28 27 27 27 27 27 27 26 26 26 26 26 25 25 25 25 25 25 25 24 23 23 22 22 22 22 22 21 20 19 19 19 19 18 18
25 26 26 26 25 25 25 26 26 27 27 27 27 28 28 27 27 27 27 27 27 28 28 27 27 26 26 26 26 27 27 27 27 26 25 24 24 24 23 23 23 22 22 22 21 20 20 19 19
26 26 27 27 27 27 27 27 27 28 27 28 28 28 28 28 28 28 28 28 28 29 29 28 27 27 27 27 27 28 28 28 28 27 27 26 25 25 24 24 24 23 23 23 23 22 21 20 20
27 27 27 27 27 27 28 29 29 28 28 29 29 29 29 29 29 29 29 29 29 30 29 27 27 27 28 28 28 28 29 29 29 28 28 28 27 27 26 26 25 25 24 24 25 24 23 22 22
28 28 28 28 28 28 29 29 29 28 28 29 29 28 29 30 29 29 29 29 29 29 29 28 29 29 29 29 29 29 30 29 29 30 29 29 29 29 29 28 27 26 25 25 26 26 25 25 25
28 28 28 29 29 29 30 30 30 29 29 30 30 29 29 30 29 30 30 30 30 30 29 29 29 29 29 30 30 30 30 30 30 30 30 31 31 31 31 30 29 28 27 27 27 27 27 27 27
29 29 29 29 30 30 30 30 30 29 30 30 31 30 30 30 30 30 30 31 31 31 31 31 31 31 30 30 30 30 30 31 31 31 31 32 32 32 32 32 31 30 29 28 28 28 28 28 28
29 30 30 30 31 30 31 31 31 31 31 31 32 31 31 31 31 31 31 32 32 32 31 32 32 32 32 31 31 32 32 32 32 32 33 33 33 33 33 32 32 32 31 30 30 29 29 29 30
30 31 32 31 32 32 32 30 30 31 31 31 32 32 32 31 32 32 32 33 33 32 32 32 32 32 32 32 32 33 33 33 33 33 33 34 34 34 33 34 33 33 32 32 31 31 31 31 31
30 31 32 33 33 33 33 32 31 32 32 32 32 32 32 32 32 33 33 34 34 34 34 34 33 33 34 34 34 34 35 35 35 34 34 34 34 34 34 35 34 34 34 33 33 33 33 33 33
30 30 31 32 34 34 34 33 32 32 32 32 32 33 33 34 34 34 34 34 35 35 36 36 36 35 35 35 35 36 35 36 36 36 35 34 34 34 35 35 35 35 35 35 34 34 34 34 34
30 30 31 32 34 33 34 34 33 32 33 33 33 33 34 35 36 36 36 35 35 35 36 37 37 36 36 36 36 37 37 36 38 38 37 36 35 35 34 35 36 36 36 36 36 36 35 35 35
29 30 32 32 33 33 33 33 33 32 33 33 34 34 35 35 36 36 36 36 36 36 35 36 36 37 37 37 36 37 38 37 37 37 38 38 37 36 36 36 36 36 36 36 36 36 36 36 36
30 30 31 33 34 34 34 34 33 33 33 33 34 35 35 35 35 37 37 36 37 37 37 36 37 37 37 37 37 37 38 38 37 37 38 38 38 38 38 36 36 36 37 37 37 37 37 38 38
30 31 32 33 34 34 35 36 32 33 34 34 34 35 36 35 36 37 38 38 38 38 38 38 38 37 37 38 38 38 38 38 37 37 38 38 38 38 39 38 38 37 38 38 37 37 38 38 39
31 31 32 33 34 34 34 36 33 33 34 34 35 35 36 36 36 37 38 38 38 38 38 38 38 38 38 38 39 39 39 39 38 38 38 39 39 39 40 39 39 39 39 38 38 38 38 39 39
31 32 33 34 35 36 34 35 34 33 33 34 35 35 36 36 37 37 38 38 39 39 39 38 39 39 39 38 38 39 39 39 39 38 39 40 40 40 40 39 40 40 40 39 38 38 38 40 40
30 32 33 35 36 37 35 36 35 33 33 33 35 35 36 36 37 38 38 38 39 39 40 40 40 40 40 39 39 39 39 40 40 40 40 40 41 41 41 40 40 40 40 40 40 40 40 41 41
31 32 34 35 37 37 35 36 35 33 33 34 35 36 36 37 38 38 38 38 39 40 40 40 41 41 41 41 41 40 41 41 42 42 41 41 41 41 42 42 42 42 42 42 42 43 43 43 43
33 33 34 36 37 38 38 36 34 33 34 34 35 36 37 37 38 38 39 40 40 40 41 41 41 41 42 42 42 42 43 43 44 43 43 43 43 43 43 43 44 44 44 44 44 45 44 44 44
34 34 34 35 37 38 39 38 37 36 36 36 37 37 38 38 38 39 39 40 40 41 41 42 42 42 42 43 43 44 44 44 44 45 44 45 44 44 44 45 45 46 46 46 46 46 46 46 46
34 34 35 36 38 39 41 39 39 39 38 37 37 38 38 39 39 39 39 40 40 41 42 42 43 43 43 43 43 43 44 44 44 45 45 45 45 46 47 47 47 48 48 48 48 48 48 47 47
35 36 36 37 38 40 42 42 39 40 40 40 40 39 39 40 40 39 39 40 41 42 42 43 44 44 44 44 44 44 44 45 45 46 46 47 47 47 47 48 49 49 49 49 50 50 49 49 50
Wind_Direction
258 257 256 253 253 253 252 250 249 248 247 246 246 244 244 245 244 246 248 247 247 248 250 251 253 253 252 253 254 255 254 254 254 252 253 254 256 259 260 262 263 263 263 263 264 266 270 274 275
259 258 256 253 251 253 253 252 249 249 248 246 246 246 246 246 246 247 247 247 248 249 251 251 252 252 252 253 255 255 255 254 254 253 254 255 256 258 260 262 262 263 263 263 263 265 269 272 274
261 260 257 253 252 252 253 253 252 252 250 248 247 247 246 246 246 247 247 248 249 251 251 251 251 251 252 253 254 254 255 255 255 254 254 255 256 259 260 261 262 263 263 262 263 265 268 270 272
260 258 256 255 254 256 256 257 255 253 251 249 249 248 248 247 246 245 246 247 248 250 251 250 251 251 252 253 254 254 253 255 255 254 253 254 256 258 259 260 261 263 263 262 262 265 267 268 270
259 258 257 256 258 257 258 257 256 256 253 251 251 251 249 248 247 245 245 246 246 248 250 250 251 252 253 253 253 253 253 254 256 255 254 255 256 256 256 258 260 261 262 263 263 263 265 267 268
260 258 257 259 260 259 260 258 255 256 253 252 252 252 251 249 247 246 245 246 247 248 248 249 250 252 254 253 252 252 252 253 255 255 254 255 256 257 256 257 260 263 262 262 261 261 263 264 266
259 258 259 261 261 259 259 258 256 257 256 254 253 252 251 249 247 246 246 247 248 249 250 249 249 251 253 253 252 252 252 253 253 254 254 253 254 257 259 259 259 260 261 262 262 262 261 262 265
259 259 258 260 261 258 258 257 256 256 256 256 254 252 251 250 248 247 246 248 249 250 250 250 250 251 252 252 252 252 252 252 253 254 255 253 255 257 258 259 258 258 259 261 261 261 262 263 265
259 259 258 259 260 258 257 256 256 256 256 256 256 254 253 249 248 248 248 249 250 250 251 250 252 253 253 252 251 252 252 252 253 254 256 256 257 258 259 259 259 258 258 259 260 261 263 263 264
259 258 257 258 259 258 257 258 258 256 257 256 256 256 255 252 250 248 248 249 250 251 252 253 253 253 254 254 253 252 251 252 254 255 256 257 257 258 258 260 258 258 258 258 260 260 261 262 263
259 258 257 258 258 258 258 257 258 258 258 258 258 258 257 254 252 249 249 251 251 252 253 253 254 254 255 254 254 253 252 253 254 254 255 256 257 257 257 259 259 258 258 259 259 258 258 261 264
259 259 258 257 257 257 258 259 259 260 259 259 260 260 259 256 257 252 251 252 252 253 254 254 255 255 255 254 254 255 254 255 255 254 254 255 257 258 257 257 260 260 258 259 261 259 260 262 264
260 258 258 258 256 258 260 261 260 260 260 258 259 259 260 259 259 256 253 253 252 253 254 255 256 256 255 254 255 255 255 254 255 254 253 254 255 256 257 258 259 259 259 260 262 262 260 262 261
262 258 258 259 258 259 260 260 260 259 260 259 259 259 259 259 257 257 256 254 254 254 255 256 256 256 255 255 254 255 255 255 255 255 256 255 255 257 258 257 258 260 261 261 262 261 260 261 260
263 260 258 260 259 259 259 260 260 260 259 259 259 259 259 260 257 257 256 255 256 256 256 257 257 257 257 256 255 254 255 255 255 255 257 257 257 257 257 259 260 260 260 261 261 261 262 262 262
264 263 260 259 258 259 260 260 261 260 260 259 258 258 258 259 259 258 257 256 255 255 255 255 256 257 258 258 256 255 255 255 255 255 256 257 257 256 256 258 260 259 260 261 261 262 262 262 263
265 265 263 260 259 260 261 262 261 261 260 259 259 258 257 257 259 258 258 257 256 255 255 255 255 257 258 258 257 255 254 254 255 256 256 256 257 257 257 258 259 260 261 261 262 262 262 263 263
266 266 264 262 261 261 262 262 262 262 260 259 260 259 258 258 258 258 258 258 257 256 256 256 256 257 258 258 258 256 255 254 255 256 257 257 257 257 258 259 259 260 261 262 262 264 264 264 264
266 266 265 263 262 261 261 262 262 261 261 260 260 260 259 259 258 258 259 258 257 256 256 257 257 257 258 258 258 257 255 254 255 255 256 257 257 257 258 259 260 260 261 261 262 263 265 264 264
267 267 266 264 263 263 263 264 262 262 261 261 261 261 261 260 259 259 259 260 259 258 257 257 257 257 257 257 256 257 256 255 256 256 258 259 259 258 260 261 259 260 261 261 262 264 264 265 265
268 268 268 268 265 264 266 265 264 263 263 261 261 262 262 261 260 260 260 261 260 259 257 257 257 257 257 257 256 255 256 256 256 257 259 260 260 260 259 259 259 260 261 263 264 264 264 264 265
271 269 269 269 267 266 267 269 265 264 264 263 263 262 262 261 261 261 261 261 261 259 259 258 258 258 257 256 256 256 257 257 256 257 258 259 259 261 260 260 261 261 261 263 264 263 265 266 266
272 270 269 268 267 267 267 271 269 267 267 265 264 263 263 262 262 262 262 261 261 259 259 258 257 257 256 256 256 257 258 258 257 258 259 259 258 258 260 261 261 262 262 262 263 264 266 267 267
271 270 269 269 267 267 268 271 271 269 269 268 266 265 264 264 263 263 263 262 261 260 258 257 256 256 256 256 257 257 257 257 257 257 259 259 258 259 260 260 261 262 262 263 264 265 266 268 269
272 271 270 270 269 270 269 269 271 272 272 271 270 269 267 265 264 264 265 264 263 261 259 258 257 256 256 256 257 257 257 256 256 257 258 258 259 260 260 260 261 263 263 263 265 266 266 268 269
272 270 270 270 270 271 271 271 272 273 273 272 271 271 270 269 266 266 266 265 263 262 261 259 258 257 257 257 258 257 257 257 257 258 259 259 259 259 260 261 262 263 262 263 264 266 267 268 269
272 270 269 270 271 271 271 273 272 273 274 273 272 272 271 271 269 267 266 265 263 262 261 260 260 260 259 258 258 258 258 259 259 260 260 260 261 261 261 262 263 263 263 263 264 265 267 268 269
273 272 270 270 271 272 272 272 274 275 274 274 273 273 273 273 271 269 267 265 263 263 262 261 261 261 261 260 259 259 259 259 260 261 262 262 262 262 263 264 264 264 263 264 265 266 266 267 268
274 272 271 272 272 272 273 273 274 276 275 275 274 273 272 272 271 270 268 266 264 263 263 262 261 262 262 261 261 262 262 262 262 262 263 263 264 263 264 264 265 265 264 265 266 267 267 268 268
273 272 271 271 273 272 273 273 274 276 277 276 275 273 273 271 271 270 269 267 266 264 263 262 261 262 262 262 263 263 264 264 264 264 265 265 265 265 266 266 266 266 266 267 267 267 267 268 268
Height
5782 5783 5784 5785 5787 5787 5789 5790 5791 5793 5794 5795 5797 5798 5800 5801 5803 5807 5806 5806 5807 5809 5810 5811 5812 5813 5814 5815 5816 5816 5817 5818 5818 5818 5819 5820 5821 5821 5822 5822 5823 5823 5823 5824 5824 5824 5824 5824 5825
5778 5779 5780 5781 5782 5783 5785 5786 5787 5788 5790 5791 5793 5794 5795 5797 5798 5800 5802 5802 5804 5805 5806 5807 5809 5810 5811 5812 5812 5813 5814 5815 5815 5816 5816 5817 5818 5818 5819 5819 5820 5820 5821 5821 5821 5822 5822 5822 5822
5774 5775 5777 5777 5778 5779 5781 5782 5783 5784 5785 5787 5788 5790 5791 5793 5795 5796 5797 5799 5800 5801 5802 5804 5805 5806 5807 5808 5809 5810 5810 5811 5812 5813 5813 5814 5815 5816 5816 5817 5817 5818 5818 5818 5819 5819 5820 5820 5820
5771 5772 5773 5774 5775 5776 5777 5778 5778 5779 5781 5782 5783 5785 5787 5789 5790 5791 5792 5794 5796 5797 5799 5800 5801 5802 5803 5804 5805 5806 5807 5808 5808 5809 5810 5811 5812 5813 5813 5814 5814 5815 5815 5816 5816 5817 5817 5817 5818
5766 5767 5768 5769 5771 5773 5772 5773 5774 5774 5776 5778 5779 5780 5782 5784 5785 5786 5788 5790 5792 5793 5794 5796 5797 5798 5799 5800 5801 5802 5803 5804 5805 5806 5807 5808 5809 5809 5810 5811 5811 5812 5812 5813 5813 5814 5814 5815 5815
5761 5762 5764 5764 5767 5768 5768 5768 5769 5770 5771 5772 5774 5775 5777 5779 5780 5782 5783 5785 5787 5788 5790 5791 5792 5794 5795 5796 5797 5798 5799 5800 5801 5802 5803 5804 5805 5806 5806 5807 5808 5808 5809 5809 5810 5810 5811 5811 5812
5756 5757 5758 5760 5762 5763 5763 5764 5764 5765 5766 5768 5769 5771 5772 5774 5776 5777 5779 5780 5782 5783 5785 5786 5787 5789 5790 5791 5792 5794 5795 5796 5797 5798 5799 5800 5801 5802 5803 5803 5804 5805 5806 5806 5807 5807 5808 5808 5808
5750 5752 5753 5754 5756 5758 5758 5759 5759 5760 5761 5763 5764 5765 5767 5769 5770 5772 5774 5775 5777 5778 5780 5781 5782 5784 5785 5786 5787 5789 5790 5791 5793 5794 5794 5796 5797 5798 5798 5799 5800 5801 5802 5802 5803 5803 5804 5804 5805
5744 5746 5747 5749 5750 5752 5752 5753 5755 5756 5757 5758 5759 5760 5762 5763 5765 5767 5768 5770 5771 5773 5774 5775 5777 5778 5779 5781 5782 5783 5785 5786 5788 5789 5790 5791 5792 5793 5794 5795 5796 5797 5797 5798 5799 5799 5800 5801 5801
5738 5739 5741 5743 5744 5745 5746 5748 5749 5750 5752 5753 5754 5755 5756 5757 5759 5761 5762 5764 5766 5767 5768 5769 5771 5772 5773 5775 5776 5778 5779 5781 5782 5784 5785 5786 5787 5788 5789 5790 5791 5792 5793 5794 5795 5795 5796 5796 5797
5732 5733 5735 5737 5738 5739 5740 5742 5743 5745 5746 5747 5748 5750 5750 5752 5753 5754 5756 5758 5759 5760 5762 5763 5765 5766 5767 5769 5770 5771 5773 5775 5776 5778 5779 5781 5782 5783 5784 5785 5786 5787 5788 5789 5790 5790 5791 5792 5793
5726 5727 5729 5731 5732 5733 5734 5736 5738 5739 5741 5741 5742 5743 5744 5745 5747 5748 5750 5751 5753 5754 5756 5757 5758 5760 5761 5763 5764 5765 5767 5769 5770 5772 5773 5775 5776 5777 5779 5780 5781 5782 5782 5783 5784 5785 5786 5787 5787
5720 5721 5723 5724 5726 5727 5728 5729 5731 5733 5734 5735 5736 5737 5738 5739 5741 5742 5744 5745 5747 5748 5749 5750 5752 5753 5754 5756 5757 5759 5760 5762 5764 5765 5767 5768 5770 5771 5772 5774 5775 5776 5777 5778 5779 5780 5780 5781 5782
5714 5715 5716 5717 5719 5720 5721 5723 5724 5726 5727 5728 5729 5731 5732 5733 5734 5736 5737 5738 5740 5741 5743 5744 5745 5746 5748 5749 5751 5752 5754 5755 5757 5759 5760 5761 5763 5764 5765 5767 5768 5769 5771 5772 5772 5773 5774 5775 5776
5707 5708 5710 5711 5712 5713 5715 5717 5718 5719 5720 5721 5722 5723 5725 5726 5727 5728 5730 5731 5733 5734 5736 5737 5738 5739 5740 5742 5743 5745 5746 5748 5749 5751 5753 5754 5756 5757 5758 5760 5761 5763 5764 5765 5765 5766 5767 5768 5770
5700 5701 5702 5704 5704 5705 5708 5710 5711 5711 5712 5714 5715 5716 5717 5718 5720 5721 5722 5724 5725 5727 5728 5730 5731 5732 5733 5735 5736 5738 5739 5741 5742 5744 5745 5747 5748 5750 5751 5753 5754 5755 5756 5757 5759 5760 5761 5762 5762
5692 5693 5695 5696 5697 5698 5699 5702 5704 5703 5705 5706 5707 5708 5710 5711 5712 5714 5715 5716 5717 5719 5721 5722 5724 5725 5726 5727 5728 5730 5731 5733 5734 5736 5737 5739 5741 5742 5743 5745 5746 5748 5749 5750 5751 5752 5753 5754 5755
5686 5686 5687 5688 5689 5690 5691 5694 5696 5696 5697 5698 5699 5701 5702 5703 5704 5705 5707 5708 5709 5711 5713 5715 5716 5717 5718 5719 5720 5722 5723 5725 5726 5728 5729 5731 5733 5734 5735 5737 5738 5740 5741 5742 5743 5744 5745 5746 5747
5678 5678 5679 5681 5681 5682 5683 5686 5688 5688 5689 5690 5692 5693 5694 5695 5696 5697 5698 5700 5701 5702 5704 5706 5707 5709 5710 5711 5712 5714 5715 5717 5718 5719 5721 5722 5724 5726 5727 5729 5730 5731 5732 5733 5734 5736 5736 5737 5738
5671 5671 5672 5673 5673 5674 5676 5678 5680 5680 5681 5682 5683 5684 5685 5687 5688 5689 5690 5691 5693 5694 5696 5697 5699 5700 5701 5702 5704 5705 5706 5708 5710 5711 5713 5714 5716 5717 5719 5720 5721 5722 5724 5725 5726 5727 5728 5728 5729
5664 5664 5664 5665 5666 5667 5667 5669 5672 5673 5673 5674 5675 5676 5677 5678 5680 5680 5681 5683 5684 5685 5686 5688 5690 5691 5692 5693 5695 5696 5698 5699 5701 5703 5704 5706 5707 5708 5710 5711 5713 5714 5715 5716 5716 5717 5718 5719 5720
5656 5657 5657 5657 5657 5658 5659 5659 5664 5664 5665 5666 5666 5667 5668 5670 5671 5672 5673 5674 5675 5676 5677 5679 5680 5682 5683 5685 5686 5687 5689 5691 5692 5694 5696 5697 5698 5699 5700 5702 5704 5705 5706 5707 5707 5708 5709 5710 5711
5649 5650 5650 5649 5649 5650 5651 5650 5654 5655 5656 5657 5658 5659 5659 5661 5662 5663 5663 5664 5665 5667 5668 5669 5671 5672 5674 5675 5677 5678 5680 5682 5683 5685 5686 5688 5689 5690 5691 5693 5694 5695 5696 5697 5698 5699 5700 5700 5701
5641 5642 5641 5641 5640 5641 5644 5643 5644 5646 5647 5648 5649 5650 5650 5651 5652 5653 5654 5655 5656 5657 5658 5659 5661 5663 5664 5666 5667 5669 5670 5672 5673 5675 5677 5678 5679 5680 5682 5683 5684 5686 5686 5687 5688 5689 5690 5690 5691
5633 5633 5632 5631 5631 5633 5635 5634 5636 5638 5639 5639 5640 5640 5641 5642 5643 5643 5644 5645 5646 5647 5648 5650 5651 5653 5654 5656 5658 5659 5661 5662 5664 5665 5667 5668 5669 5670 5672 5673 5674 5675 5676 5677 5678 5679 5680 5680 5681
5626 5625 5625 5624 5623 5624 5626 5626 5630 5631 5631 5631 5631 5631 5632 5632 5633 5634 5634 5635 5636 5637 5638 5639 5641 5643 5644 5646 5648 5649 5651 5652 5653 5655 5656 5658 5659 5660 5661 5662 5663 5664 5665 5666 5667 5668 5669 5669 5670
5617 5617 5618 5616 5615 5615 5616 5618 5621 5622 5622 5622 5622 5622 5622 5623 5623 5624 5624 5625 5626 5627 5628 5629 5631 5632 5634 5635 5637 5638 5640 5641 5643 5644 5645 5646 5647 5649 5650 5651 5652 5653 5654 5655 5656 5657 5657 5657 5658
5610 5609 5609 5607 5606 5605 5607 5609 5611 5613 5613 5613 5614 5613 5613 5613 5613 5614 5614 5615 5616 5617 5618 5619 5620 5622 5623 5624 5625 5627 5629 5630 5631 5633 5634 5635 5636 5637 5638 5639 5640 5641 5642 5643 5644 5645 5646 5646 5646
5601 5601 5599 5598 5598 5598 5597 5602 5603 5603 5603 5604 5604 5603 5603 5604 5604 5604 5604 5605 5605 5606 5607 5608 5610 5611 5612 5613 5614 5616 5617 5618 5620 5621 5622 5623 5624 5625 5626 5627 5628 5629 5630 5630 5632 5632 5633 5633 5633
5591 5591 5591 5591 5589 5589 5588 5593 5594 5594 5593 5593 5593 5593 5593 5594 5594 5594 5594 5594 5595 5596 5596 5597 5598 5599 5601 5602 5603 5604 5605 5606 5608 5609 5610 5611 5612 5613 5614 5615 5615 5616 5616 5617 5618 5619 5619 5620 5620